Wetterdaten: Dienstag, 24.03.2015
Datum Zeit Temp. A. Feuchte A. Luftdruck Regen Wind Richtung Richtung Sonnenschein ET UV Solar Taupunkt Windchill Windben Empfang
24.03.2015 00:00 0,9 C 86 % 1011,6 hPa 0,0 l/m 0,0 km/h (0 Bft) S 173 0 min 0,000 mm 0,0 UV-I 0 W/m -1,2 C 0,9 C 0,0 km/h (0 Bft) 0,00 %
24.03.2015 00:15 0,6 C 86 % 1011,5 hPa 0,0 l/m 0,0 km/h (0 Bft) S 173 0 min 0,000 mm 0,0 UV-I 0 W/m -1,5 C 0,6 C 0,0 km/h (0 Bft) 0,00 %
24.03.2015 00:30 0,6 C 86 % 1011,4 hPa 0,0 l/m 0,0 km/h (0 Bft) S 180 0 min 0,000 mm 0,0 UV-I 0 W/m -1,5 C 0,6 C 0,0 km/h (0 Bft) 0,00 %
24.03.2015 00:45 0,5 C 86 % 1011,4 hPa 0,0 l/m 0,0 km/h (0 Bft) S 188 0 min 0,000 mm 0,0 UV-I 0 W/m -1,6 C 0,5 C 0,0 km/h (0 Bft) 0,00 %
24.03.2015 01:00 0,4 C 87 % 1011,2 hPa 0,0 l/m 0,0 km/h (0 Bft) S 178 0 min 0,000 mm 0,0 UV-I 0 W/m -1,5 C 0,4 C 0,0 km/h (0 Bft) 0,00 %
24.03.2015 01:15 0,3 C 87 % 1011,0 hPa 0,0 l/m 0,0 km/h (0 Bft) S 175 0 min 0,000 mm 0,0 UV-I 0 W/m -1,6 C 0,3 C 0,0 km/h (0 Bft) 0,00 %
24.03.2015 01:30 0,1 C 87 % 1011,1 hPa 0,0 l/m 0,0 km/h (0 Bft) S 178 0 min 0,000 mm 0,0 UV-I 0 W/m -1,8 C 0,1 C 0,0 km/h (0 Bft) 0,00 %
24.03.2015 01:45 -0,1 C 87 % 1011,1 hPa 0,0 l/m 0,0 km/h (0 Bft) S 181 0 min 0,000 mm 0,0 UV-I 0 W/m -2,0 C -0,1 C 0,0 km/h (0 Bft) 0,00 %
24.03.2015 02:00 0,0 C 87 % 1011,0 hPa 0,0 l/m 0,0 km/h (0 Bft) S 180 0 min 0,000 mm 0,0 UV-I 0 W/m -1,9 C 0,0 C 0,0 km/h (0 Bft) 0,00 %
24.03.2015 02:15 0,0 C 87 % 1010,8 hPa 0,0 l/m 0,0 km/h (0 Bft) S 174 0 min 0,000 mm 0,0 UV-I 0 W/m -1,9 C 0,0 C 0,0 km/h (0 Bft) 0,00 %
24.03.2015 02:30 -0,1 C 87 % 1010,8 hPa 0,0 l/m 0,0 km/h (0 Bft) S 180 0 min 0,000 mm 0,0 UV-I 0 W/m -2,0 C -0,1 C 0,0 km/h (0 Bft) 0,00 %
24.03.2015 02:45 -0,1 C 87 % 1010,6 hPa 0,0 l/m 0,0 km/h (0 Bft) S 185 0 min 0,000 mm 0,0 UV-I 0 W/m -2,0 C -0,1 C 0,0 km/h (0 Bft) 0,00 %
24.03.2015 03:00 -0,2 C 87 % 1010,5 hPa 0,0 l/m 0,0 km/h (0 Bft) S 185 0 min 0,000 mm 0,0 UV-I 0 W/m -2,1 C -0,2 C 0,0 km/h (0 Bft) 0,00 %
24.03.2015 03:15 -0,5 C 88 % 1010,3 hPa 0,0 l/m 0,0 km/h (0 Bft) S 178 0 min 0,000 mm 0,0 UV-I 0 W/m -2,2 C -0,5 C 0,0 km/h (0 Bft) 0,00 %
24.03.2015 03:30 -0,8 C 88 % 1010,6 hPa 0,0 l/m 0,0 km/h (0 Bft) S 179 0 min 0,000 mm 0,0 UV-I 0 W/m -2,5 C -0,8 C 0,0 km/h (0 Bft) 0,00 %
24.03.2015 03:45 -0,7 C 87 % 1010,5 hPa 0,0 l/m 0,0 km/h (0 Bft) S 173 0 min 0,000 mm 0,0 UV-I 0 W/m -2,6 C -0,7 C 0,0 km/h (0 Bft) 0,00 %
24.03.2015 04:00 -0,5 C 87 % 1010,2 hPa 0,0 l/m 0,0 km/h (0 Bft) S-SW 199 0 min 0,000 mm 0,0 UV-I 0 W/m -2,4 C -0,5 C 0,0 km/h (0 Bft) 0,00 %
24.03.2015 04:15 -0,4 C 88 % 1010,4 hPa 0,0 l/m 0,0 km/h (0 Bft) S 176 0 min 0,000 mm 0,0 UV-I 0 W/m -2,1 C -0,4 C 0,0 km/h (0 Bft) 0,00 %
24.03.2015 04:30 -0,2 C 87 % 1010,3 hPa 0,0 l/m 0,0 km/h (0 Bft) S 186 0 min 0,000 mm 0,0 UV-I 0 W/m -2,1 C -0,2 C 0,0 km/h (0 Bft) 0,00 %
24.03.2015 04:45 -0,4 C 88 % 1010,6 hPa 0,0 l/m 0,0 km/h (0 Bft) S 186 0 min 0,000 mm 0,0 UV-I 0 W/m -2,1 C -0,4 C 0,0 km/h (0 Bft) 0,00 %
24.03.2015 05:00 -0,6 C 88 % 1010,6 hPa 0,0 l/m 0,0 km/h (0 Bft) S 177 0 min 0,000 mm 0,0 UV-I 0 W/m -2,3 C -0,6 C 0,0 km/h (0 Bft) 0,00 %
24.03.2015 05:15 -1,1 C 88 % 1010,8 hPa 0,0 l/m 0,0 km/h (0 Bft) S-SW 197 0 min 0,000 mm 0,0 UV-I 0 W/m -2,8 C -1,1 C 0,0 km/h (0 Bft) 0,00 %
24.03.2015 05:30 -1,2 C 88 % 1010,7 hPa 0,0 l/m 0,0 km/h (0 Bft) S 191 0 min 0,000 mm 0,0 UV-I 0 W/m -2,9 C -1,2 C 0,0 km/h (0 Bft) 0,00 %
24.03.2015 05:45 -1,2 C 88 % 1010,6 hPa 0,0 l/m 0,0 km/h (0 Bft) S 177 0 min 0,000 mm 0,0 UV-I 0 W/m -2,9 C -1,2 C 0,0 km/h (0 Bft) 0,00 %
24.03.2015 06:00 -1,4 C 88 % 1010,6 hPa 0,0 l/m 0,0 km/h (0 Bft) S-SW 194 0 min 0,000 mm 0,0 UV-I 0 W/m -3,1 C -1,4 C 0,0 km/h (0 Bft) 0,00 %
24.03.2015 06:15 -1,4 C 88 % 1011,1 hPa 0,0 l/m 0,0 km/h (0 Bft) S 176 0 min 0,000 mm 0,0 UV-I 6 W/m -3,1 C -1,4 C 0,0 km/h (0 Bft) 0,00 %
24.03.2015 06:30 -1,3 C 88 % 1010,9 hPa 0,0 l/m 0,0 km/h (0 Bft) S 176 0 min 0,000 mm 0,0 UV-I 24 W/m -3,0 C -1,3 C 0,0 km/h (0 Bft) 0,00 %
24.03.2015 06:45 -1,2 C 88 % 1011,1 hPa 0,0 l/m 0,0 km/h (0 Bft) S 190 0 min 0,000 mm 1,0 UV-I 46 W/m -2,9 C -1,2 C 0,0 km/h (0 Bft) 0,00 %
24.03.2015 07:00 -0,5 C 87 % 1011,1 hPa 0,0 l/m 0,0 km/h (0 Bft) S 179 0 min 0,000 mm 1,0 UV-I 68 W/m -2,4 C -0,5 C 0,0 km/h (0 Bft) 0,00 %
24.03.2015 07:15 -0,1 C 87 % 1011,2 hPa 0,0 l/m 0,0 km/h (0 Bft) S 182 0 min 0,000 mm 1,0 UV-I 85 W/m -2,0 C -0,1 C 0,0 km/h (0 Bft) 0,00 %
24.03.2015 07:30 0,3 C 87 % 1011,0 hPa 0,0 l/m 0,0 km/h (0 Bft) SW 221 0 min 0,000 mm 1,0 UV-I 118 W/m -1,6 C 0,3 C 0,0 km/h (0 Bft) 0,00 %
24.03.2015 07:45 0,9 C 87 % 1010,8 hPa 0,0 l/m 0,0 km/h (0 Bft) S-SW 209 0 min 0,000 mm 1,0 UV-I 152 W/m -1,0 C 0,9 C 0,0 km/h (0 Bft) 0,00 %
24.03.2015 08:00 1,4 C 86 % 1010,6 hPa 0,0 l/m 0,0 km/h (0 Bft) S 190 0 min 0,000 mm 1,0 UV-I 165 W/m -0,7 C 1,4 C 0,0 km/h (0 Bft) 0,00 %
24.03.2015 08:15 1,9 C 86 % 1010,7 hPa 0,0 l/m 0,0 km/h (0 Bft) S-SW 195 0 min 0,000 mm 2,0 UV-I 139 W/m -0,2 C 1,9 C 0,0 km/h (0 Bft) 0,00 %
24.03.2015 08:30 3,0 C 88 % 1010,6 hPa 0,0 l/m 0,0 km/h (0 Bft) W-SW 255 0 min 0,000 mm 2,0 UV-I 185 W/m 1,2 C 3,0 C 0,0 km/h (0 Bft) 0,00 %
24.03.2015 08:45 3,9 C 83 % 1010,4 hPa 0,0 l/m 0,0 km/h (0 Bft) S 185 0 min 0,000 mm 2,0 UV-I 193 W/m 1,3 C 3,9 C 0,0 km/h (0 Bft) 0,00 %
24.03.2015 09:00 4,9 C 80 % 1010,2 hPa 0,0 l/m 0,0 km/h (0 Bft) N-NO 30 0 min 0,000 mm 2,0 UV-I 205 W/m 1,7 C 4,9 C 0,0 km/h (0 Bft) 0,00 %
24.03.2015 09:15 5,4 C 76 % 1010,3 hPa 0,0 l/m 0,0 km/h (0 Bft) O-SO 111 0 min 0,000 mm 3,0 UV-I 238 W/m 1,5 C 5,4 C 0,0 km/h (0 Bft) 0,00 %
24.03.2015 09:30 6,3 C 71 % 1009,9 hPa 0,0 l/m 0,0 km/h (0 Bft) SO 128 15 min 0,000 mm 2,0 UV-I 304 W/m 1,4 C 6,3 C 0,0 km/h (0 Bft) 0,00 %
24.03.2015 09:45 6,7 C 69 % 1009,8 hPa 0,0 l/m 0,0 km/h (0 Bft) NW 316 0 min 0,000 mm 3,0 UV-I 265 W/m 1,4 C 6,7 C 0,0 km/h (0 Bft) 0,00 %
24.03.2015 10:00 6,5 C 72 % 1009,8 hPa 0,0 l/m 0,0 km/h (0 Bft) SO 142 0 min 0,000 mm 2,0 UV-I 223 W/m 1,8 C 6,5 C 0,0 km/h (0 Bft) 0,00 %
24.03.2015 10:15 6,0 C 75 % 1009,8 hPa 0,0 l/m 0,0 km/h (0 Bft) NW 308 0 min 0,000 mm 2,0 UV-I 180 W/m 1,9 C 6,0 C 0,0 km/h (0 Bft) 0,00 %
24.03.2015 10:30 5,5 C 77 % 1010,1 hPa 0,0 l/m 0,0 km/h (0 Bft) N 356 0 min 0,000 mm 2,0 UV-I 160 W/m 1,8 C 5,5 C 0,0 km/h (0 Bft) 0,00 %
24.03.2015 10:45 5,8 C 77 % 1009,9 hPa 0,0 l/m 0,0 km/h (0 Bft) N 351 0 min 0,000 mm 2,0 UV-I 275 W/m 2,1 C 5,8 C 0,0 km/h (0 Bft) 0,00 %
24.03.2015 11:00 5,7 C 79 % 1009,8 hPa 0,0 l/m 0,0 km/h (0 Bft) SW 233 0 min 0,000 mm 2,0 UV-I 166 W/m 2,3 C 5,7 C 0,0 km/h (0 Bft) 0,00 %
24.03.2015 11:15 5,9 C 79 % 1009,6 hPa 0,0 l/m 0,0 km/h (0 Bft) N-NW 346 0 min 0,000 mm 3,0 UV-I 160 W/m 2,5 C 5,9 C 0,0 km/h (0 Bft) 0,00 %
24.03.2015 11:30 6,7 C 75 % 1009,6 hPa 0,0 l/m 0,0 km/h (0 Bft) N-NW 335 0 min 0,000 mm 3,0 UV-I 219 W/m 2,6 C 6,7 C 0,0 km/h (0 Bft) 0,00 %
24.03.2015 11:45 7,6 C 73 % 1009,1 hPa 0,0 l/m 1,8 km/h (1 Bft) O-SO 106 15 min 0,000 mm 4,0 UV-I 426 W/m 3,1 C 7,6 C 4,0 km/h (1 Bft) 0,00 %
24.03.2015 12:00 8,4 C 68 % 1008,9 hPa 0,0 l/m 0,0 km/h (0 Bft) O 97 15 min 0,000 mm 3,0 UV-I 553 W/m 2,8 C 8,4 C 0,0 km/h (0 Bft) 0,00 %
24.03.2015 12:15 9,5 C 63 % 1008,5 hPa 0,0 l/m 0,7 km/h (0 Bft) O 100 15 min 0,000 mm 4,0 UV-I 602 W/m 2,8 C 9,5 C 4,0 km/h (1 Bft) 0,00 %
24.03.2015 12:30 10,0 C 63 % 1008,1 hPa 0,0 l/m 0,7 km/h (0 Bft) N-NW 328 15 min 0,000 mm 4,0 UV-I 378 W/m 3,3 C 10,0 C 4,0 km/h (1 Bft) 0,00 %
24.03.2015 12:45 10,6 C 62 % 1007,9 hPa 0,0 l/m 1,4 km/h (1 Bft) N 354 15 min 0,000 mm 4,0 UV-I 520 W/m 3,6 C 10,6 C 4,0 km/h (1 Bft) 0,00 %
24.03.2015 13:00 10,9 C 59 % 1007,5 hPa 0,0 l/m 4,0 km/h (1 Bft) O-SO 113 15 min 0,000 mm 3,0 UV-I 628 W/m 3,2 C 10,9 C 7,9 km/h (2 Bft) 0,00 %
24.03.2015 13:15 11,1 C 58 % 1007,3 hPa 0,0 l/m 6,5 km/h (2 Bft) O-SO 123 15 min 0,000 mm 2,0 UV-I 380 W/m 3,2 C 11,1 C 7,9 km/h (2 Bft) 0,00 %
24.03.2015 13:30 11,6 C 57 % 1007,1 hPa 0,0 l/m 1,4 km/h (1 Bft) O-SO 117 15 min 0,000 mm 3,0 UV-I 410 W/m 3,4 C 11,6 C 4,0 km/h (1 Bft) 0,00 %
24.03.2015 13:45 12,1 C 56 % 1007,0 hPa 0,0 l/m 0,7 km/h (0 Bft) SO 131 15 min 0,000 mm 2,0 UV-I 420 W/m 3,6 C 12,1 C 4,0 km/h (1 Bft) 0,00 %
24.03.2015 14:00 12,2 C 54 % 1006,9 hPa 0,0 l/m 1,4 km/h (1 Bft) O 85 15 min 0,000 mm 2,0 UV-I 425 W/m 3,2 C 12,2 C 4,0 km/h (1 Bft) 0,00 %
24.03.2015 14:15 12,2 C 54 % 1007,0 hPa 0,0 l/m 0,7 km/h (0 Bft) O-SO 121 15 min 0,000 mm 2,0 UV-I 430 W/m 3,2 C 12,2 C 4,0 km/h (1 Bft) 0,00 %
24.03.2015 14:30 12,2 C 52 % 1006,6 hPa 0,0 l/m 0,0 km/h (0 Bft) O 98 15 min 0,000 mm 2,0 UV-I 435 W/m 2,6 C 12,2 C 0,0 km/h (0 Bft) 0,00 %
24.03.2015 14:45 12,8 C 53 % 1006,6 hPa 0,0 l/m 5,4 km/h (1 Bft) NO 42 15 min 0,000 mm 2,0 UV-I 440 W/m 3,5 C 12,8 C 7,9 km/h (2 Bft) 0,00 %
24.03.2015 15:00 12,8 C 52 % 1006,4 hPa 0,0 l/m 3,2 km/h (1 Bft) O-NO 73 15 min 0,000 mm 2,0 UV-I 450 W/m 3,2 C 12,8 C 7,9 km/h (2 Bft) 0,00 %
24.03.2015 15:15 12,9 C 52 % 1006,3 hPa 0,0 l/m 3,2 km/h (1 Bft) O-SO 106 15 min 0,000 mm 2,0 UV-I 460 W/m 3,3 C 12,9 C 4,0 km/h (1 Bft) 0,00 %
24.03.2015 15:30 13,0 C 51 % 1006,1 hPa 0,0 l/m 6,5 km/h (2 Bft) O 101 15 min 0,000 mm 2,0 UV-I 455 W/m 3,1 C 13,0 C 11,9 km/h (2 Bft) 0,00 %
24.03.2015 15:45 13,0 C 51 % 1005,9 hPa 0,0 l/m 1,8 km/h (1 Bft) O 100 15 min 0,000 mm 1,0 UV-I 450 W/m 3,1 C 13,0 C 4,0 km/h (1 Bft) 0,00 %
24.03.2015 16:00 13,6 C 44 % 1006,2 hPa 0,0 l/m 5,8 km/h (2 Bft) O-SO 103 15 min 0,000 mm 1,0 UV-I 445 W/m 1,6 C 13,6 C 7,9 km/h (2 Bft) 0,00 %
24.03.2015 16:15 13,7 C 44 % 1005,7 hPa 0,0 l/m 4,3 km/h (1 Bft) O 91 15 min 0,000 mm 1,0 UV-I 440 W/m 1,7 C 13,7 C 7,9 km/h (2 Bft) 0,00 %
24.03.2015 16:30 13,4 C 49 % 1005,8 hPa 0,0 l/m 0,0 km/h (0 Bft) S 175 15 min 0,000 mm 1,0 UV-I 455 W/m 2,9 C 13,4 C 0,0 km/h (0 Bft) 0,00 %
24.03.2015 16:45 13,7 C 47 % 1005,6 hPa 0,0 l/m 1,8 km/h (1 Bft) S-SW 201 15 min 0,000 mm 1,0 UV-I 466 W/m 2,6 C 13,7 C 4,0 km/h (1 Bft) 0,00 %
24.03.2015 17:00 13,2 C 51 % 1005,6 hPa 0,0 l/m 0,0 km/h (0 Bft) SO 140 15 min 0,000 mm 1,0 UV-I 434 W/m 3,3 C 13,2 C 0,0 km/h (0 Bft) 0,00 %
24.03.2015 17:15 12,8 C 50 % 1005,2 hPa 0,0 l/m 0,0 km/h (0 Bft) SO 130 15 min 0,000 mm 1,0 UV-I 456 W/m 2,6 C 12,8 C 0,0 km/h (0 Bft) 0,00 %
24.03.2015 17:30 12,5 C 49 % 1005,3 hPa 0,0 l/m 0,0 km/h (0 Bft) O-SO 104 15 min 0,000 mm 0,0 UV-I 459 W/m 2,1 C 12,5 C 0,0 km/h (0 Bft) 0,00 %
24.03.2015 17:45 12,0 C 49 % 1005,4 hPa 0,0 l/m 1,8 km/h (1 Bft) SO 144 15 min 0,000 mm 0,0 UV-I 109 W/m 1,6 C 12,0 C 4,0 km/h (1 Bft) 0,00 %
24.03.2015 18:00 11,5 C 52 % 1005,5 hPa 0,0 l/m 0,4 km/h (0 Bft) SO 140 15 min 0,000 mm 0,0 UV-I 44 W/m 2,0 C 11,5 C 4,0 km/h (1 Bft) 0,00 %
24.03.2015 18:15 10,8 C 55 % 1005,7 hPa 0,0 l/m 0,0 km/h (0 Bft) SO 125 0 min 0,000 mm 0,0 UV-I 5 W/m 2,1 C 10,8 C 0,0 km/h (0 Bft) 0,00 %
24.03.2015 18:30 10,2 C 58 % 1005,9 hPa 0,0 l/m 0,0 km/h (0 Bft) S-SO 166 0 min 0,000 mm 0,0 UV-I 0 W/m 2,3 C 10,2 C 0,0 km/h (0 Bft) 0,00 %
24.03.2015 18:45 9,7 C 57 % 1005,9 hPa 0,0 l/m 0,0 km/h (0 Bft) S 177 0 min 0,000 mm 0,0 UV-I 0 W/m 1,6 C 9,7 C 0,0 km/h (0 Bft) 0,00 %
24.03.2015 19:00 9,4 C 58 % 1006,1 hPa 0,0 l/m 0,0 km/h (0 Bft) S-SO 164 0 min 0,000 mm 0,0 UV-I 0 W/m 1,6 C 9,4 C 0,0 km/h (0 Bft) 0,00 %
24.03.2015 19:15 9,1 C 60 % 1006,0 hPa 0,0 l/m 0,0 km/h (0 Bft) S 174 0 min 0,000 mm 0,0 UV-I 0 W/m 1,8 C 9,1 C 0,0 km/h (0 Bft) 0,00 %
24.03.2015 19:30 8,5 C 65 % 1006,3 hPa 0,0 l/m 0,0 km/h (0 Bft) S 174 0 min 0,000 mm 0,0 UV-I 0 W/m 2,3 C 8,5 C 0,0 km/h (0 Bft) 0,00 %
24.03.2015 19:45 7,9 C 64 % 1006,4 hPa 0,0 l/m 0,0 km/h (0 Bft) S 174 0 min 0,000 mm 0,0 UV-I 0 W/m 1,5 C 7,9 C 0,0 km/h (0 Bft) 0,00 %
24.03.2015 20:00 8,3 C 61 % 1006,4 hPa 0,0 l/m 0,0 km/h (0 Bft) S 173 0 min 0,000 mm 0,0 UV-I 0 W/m 1,2 C 8,3 C 0,0 km/h (0 Bft) 0,00 %
24.03.2015 20:15 8,4 C 62 % 1006,3 hPa 0,0 l/m 0,0 km/h (0 Bft) S 182 0 min 0,000 mm 0,0 UV-I 0 W/m 1,6 C 8,4 C 0,0 km/h (0 Bft) 0,00 %
24.03.2015 20:30 7,7 C 63 % 1006,4 hPa 0,0 l/m 0,0 km/h (0 Bft) S 182 0 min 0,000 mm 0,0 UV-I 0 W/m 1,1 C 7,7 C 0,0 km/h (0 Bft) 0,00 %
24.03.2015 20:45 7,0 C 67 % 1006,5 hPa 0,0 l/m 0,0 km/h (0 Bft) S 180 0 min 0,000 mm 0,0 UV-I 0 W/m 1,3 C 7,0 C 0,0 km/h (0 Bft) 0,00 %
24.03.2015 21:00 6,4 C 71 % 1006,6 hPa 0,0 l/m 0,0 km/h (0 Bft) S-SW 205 0 min 0,000 mm 0,0 UV-I 0 W/m 1,5 C 6,4 C 0,0 km/h (0 Bft) 0,00 %
24.03.2015 21:15 6,1 C 71 % 1006,8 hPa 0,0 l/m 0,0 km/h (0 Bft) S-SW 192 0 min 0,000 mm 0,0 UV-I 0 W/m 1,2 C 6,1 C 0,0 km/h (0 Bft) 0,00 %
24.03.2015 21:30 5,8 C 72 % 1007,0 hPa 0,0 l/m 0,0 km/h (0 Bft) S-SW 200 0 min 0,000 mm 0,0 UV-I 0 W/m 1,2 C 5,8 C 0,0 km/h (0 Bft) 0,00 %
24.03.2015 21:45 5,5 C 73 % 1006,9 hPa 0,0 l/m 0,0 km/h (0 Bft) S 191 0 min 0,000 mm 0,0 UV-I 0 W/m 1,1 C 5,5 C 0,0 km/h (0 Bft) 0,00 %
24.03.2015 22:00 5,3 C 74 % 1007,1 hPa 0,0 l/m 0,0 km/h (0 Bft) S 191 0 min 0,000 mm 0,0 UV-I 0 W/m 1,0 C 5,3 C 0,0 km/h (0 Bft) 0,00 %
24.03.2015 22:15 5,0 C 77 % 1007,1 hPa 0,0 l/m 0,0 km/h (0 Bft) S 191 0 min 0,000 mm 0,0 UV-I 0 W/m 1,3 C 5,0 C 0,0 km/h (0 Bft) 0,00 %
24.03.2015 22:30 4,7 C 80 % 1007,3 hPa 0,0 l/m 0,0 km/h (0 Bft) S 191 0 min 0,000 mm 0,0 UV-I 0 W/m 1,6 C 4,7 C 0,0 km/h (0 Bft) 0,00 %
24.03.2015 22:45 4,7 C 80 % 1007,1 hPa 0,0 l/m 0,0 km/h (0 Bft) S 191 0 min 0,000 mm 0,0 UV-I 0 W/m 1,6 C 4,7 C 0,0 km/h (0 Bft) 0,00 %
24.03.2015 23:00 4,3 C 83 % 1007,1 hPa 0,0 l/m 0,0 km/h (0 Bft) S 191 0 min 0,000 mm 0,0 UV-I 0 W/m 1,7 C 4,3 C 0,0 km/h (0 Bft) 0,00 %
24.03.2015 23:15 4,1 C 83 % 1006,9 hPa 0,0 l/m 0,0 km/h (0 Bft) S 191 0 min 0,000 mm 0,0 UV-I 0 W/m 1,5 C 4,1 C 0,0 km/h (0 Bft) 0,00 %
24.03.2015 23:30 4,1 C 83 % 1006,7 hPa 0,0 l/m 0,0 km/h (0 Bft) S 191 0 min 0,000 mm 0,0 UV-I 0 W/m 1,5 C 4,1 C 0,0 km/h (0 Bft) 0,00 %
24.03.2015 23:45 3,8 C 83 % 1007,0 hPa 0,0 l/m 0,0 km/h (0 Bft) S 172 0 min 0,000 mm 0,0 UV-I 0 W/m 1,2 C 3,8 C 0,0 km/h (0 Bft) 0,00 %
_ Min-Zeit 06:00 16:00 17:15 - 00:00 - - - - - - 06:00 06:00 00:00 00:00
Minimum _ -1,4 C 44 % 1005,2 hPa - 0,0 km/h (0 Bft) - - - - - - -3,1 C -1,4 C 0,0 km/h (0 Bft) 0,00 %
_ Max-Zeit 16:15 03:15 00:00 00:00 13:15 - - 09:30 00:00 11:45 13:00 12:45 16:15 15:30 00:00
Maximum _ 13,7 C 88 % 1011,6 hPa 0,0 l/m 6,5 km/h
O-SO (2 Bft)
- - 15 min 0,000 mm 4,0 UV-I 628 W/m 3,6 C 13,7 C 11,9 km/h
O (2 Bft)
0,00 %
Durchschnitt _ 5,6 C 73 % 1008,5 hPa #0,0 l/m 0,6 km/h (0 Bft) O-SO - #6:45 h #0,000 mm 2,0 UV-I 301 W/m 0,7 C 5,6 C 1,2 km/h (1 Bft) 0,00 %